Voltar ao catálogo

DELTA 1 DEB

AtivoSSO
NORAD 13573·DEBRIS·🇺🇸 United States

Lançado Mar 5, 1978 de Vandenberg Space Force Base

Loading…

Próximas Passagens (próximas 24 horas)

TLE

AtualizadoSource: Space-Track

Época: Sep 14, 2026, 13:21 UTC

1 13573U 78026FL  26257.55653756  .00000016  00000-0  46111-4 0  9990
2 13573  98.7875 106.9033 0073079  30.0935 359.5515 13.89086873295735

Acompanhe DELTA 1 DEB em tempo real com AllMySat

Download on the App Store